Flag for Canada Weather past 2 weeks in Resolute Bay, Nunavut Territory, Canada

Now
34 °F

Fog.


Feels Like: 30 °F
Forecast: 32 / 36 °F
Wind: 5 mph from South

Location: Resolute

Current Time: Aug 1, 2014 at 6:53:30 AM

Latest Report: Aug 1, 2014 at 6:00 AM


Visibility: 0 mi

Pressure: 29.83 "Hg

Humidity: 100%

Dew point: 34 °F

Location of Resolute BayLocation

Historic Weather in Resolute Bay — Graph

°F

Resolute Bay temperature yesterday

Maximum temperature yesterday: 43 °F (at 12:00 PM)
Minimum temperature yesterday: 34 °F (at 8:00 PM)
Average temperature yesterday: 39 °F

Past Weeks' High & Low Weather Summary

 TemperatureHumidityPressure
High50 °F (Jul 24, 8:00 PM)100% (Jul 17, 5:00 AM)30.19 "Hg (Jul 17, 5:00 AM)
Low32 °F (Jul 21, 9:00 PM)75% (Jul 23, 3:00 PM)29.33 "Hg (Jul 18, 2:00 PM)
Average40 °F94%29.82 "Hg
* Reported Jul 17 5:00 AM — Aug 1 5:00 AM, Resolute Bay, Weather by CustomWeather, © 2014

Note: Actual official high and low records may vary slightly from our data, if they occured in-between our weather recording intervals... More about our weather records

Advertising

Resolute Bay weather history for previous 24 hours

 ConditionsComfort  
Time TempWeatherWind HumidityBarometerVisibility
5:00 AM
Aug 1
34 °FFog.5 mph100%29.82 "Hg1 mi
4:00 AM34 °FDrizzle. Fog.7 mph100%29.80 "Hg0 mi
3:00 AM34 °FFog.5 mph100%29.79 "Hg2 mi
2:00 AM34 °FFog.8 mph100%29.76 "Hg1 mi
1:46 AMN/AFog.9 mphN/AN/A1 mi
1:00 AM36 °FDrizzle. Fog.6 mph100%29.74 "Hg1 mi
12:00 AM36 °FDrizzle. Fog.13 mph100%29.73 "Hg1 mi
11:00 PM
Jul 31
34 °FDrizzle. Fog.9 mph100%29.73 "Hg0 mi
10:00 PM36 °FDrizzle. Fog.9 mph100%29.71 "Hg0 mi
9:00 PM34 °FDrizzle. Fog.13 mph100%29.70 "Hg0 mi
8:00 PM34 °FDrizzle. Fog.14 mph100%29.67 "Hg0 mi
7:00 PM36 °FDrizzle. Fog.14 mph100%29.67 "Hg0 mi
6:00 PM39 °FDrizzle. Fog.20 mph100%29.66 "Hg1 mi
5:00 PM43 °FDrizzle. Fog.18 mph100%29.65 "Hg2 mi
4:00 PM43 °FDrizzle. Fog.24 mph100%29.66 "Hg1 mi
3:00 PM41 °FLight rain. Mostly cloudy.24 mph100%29.67 "Hg10 mi
2:00 PM41 °FLight rain. More clouds than sun.25 mph100%29.71 "Hg10 mi
1:00 PM43 °FLow clouds.30 mph100%29.71 "Hg15 mi
12:00 PM43 °FRain. More clouds than sun.33 mph100%29.72 "Hg10 mi
11:00 AM41 °FRain. Cloudy.33 mph100%29.77 "Hg10 mi
10:00 AM41 °FLight rain. More clouds than sun.28 mph100%29.82 "Hg10 mi
9:00 AM41 °FLight rain. More clouds than sun.30 mph100%29.84 "Hg10 mi
8:00 AM41 °FLight rain. Mostly cloudy.25 mph100%29.88 "Hg10 mi
7:00 AM41 °FDrizzle. Mostly cloudy.21 mph93%29.92 "Hg2 mi
6:00 AM41 °FLight rain. Fog.21 mph100%29.94 "Hg5 mi
Weather by CustomWeather, © 2014

See weather overviewHow to use our weather pages